COSMOS 417

Satellite information

Favourite Embed

Satellite Type and Status

PAYLOADIN ORBIT

Key statistics

Satellite COSMOS 417 at a glance.

Uptime

19726

Days in orbit

Revolutions

≈ 12.6

Per day

Orbit

LEO

Low Earth Orbit

Inclination

74.0

Latest

Satellite identification and parameters

Extended collection of information and parameters for COSMOS 417.

Object identification

Identified? True

Debris? False

Object name: COSMOS 417

International designator: 1971-041G

Object number (NORAD): 5216

Object ID (CCSDS): 5216

Country: COMMONWEALTH OF INDEPENDENT STATES (CIS)

Current information (Y/N): Y

RCS size: MEDIUM

Orbital parameters

Period: 114.155 minutes

Inclination: 74.0137 deg

SMA: 7795.118 km

Apoapsis: 1491.266 km

Periapsis: 1342.699 km

RAAN: 294.1875 deg

Eccentricy: 0.0095295

Argument of periapsis: 99.3941 deg

Mean anomaly: 14.5121 deg

Mean motion: 12.61446254 rev/day

Mean motion (dot): 0.00000006 rev/day2

B* drag term: 0.00012281 1/REarth

Two-line elements (TLE)

Creation date: May 8, 2025, 3:01 a.m.

Reference frame: TEME

Reference center: EARTH

Epoch: May 7, 2025, 9:13 p.m. UTC

TLE line 0: 0 COSMOS 417

TLE line 1: 1 05216U 71041G 25127.88440762 .00000006 00000-0 12281-3 0 9996

TLE line 2: 2 05216 74.0137 294.1875 0095295 99.3941 14.5121 12.61446254486668

Live tracking on map

Real-time ground track for satellite COSMOS 417.

In-orbit conjunctions

A list of the most updated potential collisions computed for object COSMOS 417.

Target Orbit TCA Probability of collision Miss distance Type
DELTA 1 DEB SSO 2024-07-11 03:59:39 0.0002161769 206.0 (m) DEBRIS

Associated space launch

Military communications satellites

COSMOS 417 was lifted into orbit during the mission ‘Kosmos-3M | Strela-1M 9-16’, on board a Kosmos-3M space rocket.

The launch took place on May 7, 1971, 2:20 p.m. from 132/1 (132L).

For more information about the launch, click the button.

Launch to space Kosmos-3M | Strela-1M 9-16
Kosmos-3M | Strela-1M 9-16

Agency: N/A

Status: Launch Successful

Launch date: May 7, 1971, 2:20 p.m. UTC

Rocket: Kosmos-3M

Launch pad: 132/1 (132L)

Location: Plesetsk Cosmodrome, Russian Federation

...

Latest news about this satellite

There are no fresh news available about this satellite. Check back as we update our databases every day.


Newsletter sign-up

Weekly statistics, charts and insights to help you stay on top of the space industry.